Abakan, Russia

4:54 PM +07 on November 22, 2019 (GMT +0700)
Abakan

Weather History for UNAA - September, 2019

Change the Weather History Date:

Saturday, September 14, 2019

  Actual Average Record
Temperature  
Mean Temperature 45 °F -  
Max Temperature 51 °F - - ()
Min Temperature 39 °F - - ()
Degree Days  
Heating Degree Days 20    
Moisture  
Dew Point 38 °F    
Average Humidity 74    
Maximum Humidity 93    
Minimum Humidity 54    
Precipitation  
Precipitation 0.00 in - - ()
Sea Level Pressure  
Sea Level Pressure 30.08 in    
Wind  
Wind Speed 4 mph ()    
Max Wind Speed 9 mph    
Max Gust Speed -    
Visibility 6.2 miles    
Events Rain    
T = Trace of Precipitation, MM = Missing Value Source: Averaged Metar Reports

Daily Weather History Graph

Daily Weather History Graph

Search for Another Location

Airport or City:

Astronomy

Sep. 14, 2019 Rise Set
Actual Time 6:24 AM +07 7:14 PM +07
Civil Twilight 5:49 AM +07 7:49 PM +07
Nautical Twilight 5:06 AM +07 8:32 PM +07
Astronomical Twilight 4:20 AM +07 9:18 PM +07
Moon 7:47 PM +07 (9/14) 5:59 AM +07 (9/14)
Length of Visible Light 14h 00m
Length of Day
12h 49m
Full, 100% of the Moon is Illuminated
Sep 14
Full
Sep 22
Last Quarter
Sep 29
New
Oct 5
First Quarter
Oct 14
Full

Hourly Weather History & Observations

Time (+07) Temp. Windchill Dew Point Humidity Pressure Visibility Wind Dir Wind Speed Gust Speed Precip Events Conditions
12:00 AM 44.6 °F 40.8 °F 42.8 °F 93% 29.98 in 6.2 mi North 6.7 mph - N/A Rain Light Rain Showers
12:30 AM 44.6 °F - 42.8 °F 93% 30.01 in 6.2 mi North 2.2 mph - N/A Rain Light Rain Showers
1:30 AM 42.8 °F 40.2 °F 41.0 °F 93% 30.01 in 6.2 mi NNW 4.5 mph - N/A Rain Light Rain Showers
2:30 AM 42.8 °F 40.2 °F 41.0 °F 93% 30.01 in 6.2 mi North 4.5 mph - N/A Rain Light Rain Showers
3:00 AM 42.8 °F 38.7 °F 39.2 °F 87% 30.01 in 6.2 mi North 6.7 mph - N/A Rain Light Rain Showers
3:30 AM 41.0 °F 36.5 °F 37.4 °F 87% 30.04 in 6.2 mi NNW 6.7 mph - N/A Rain Light Rain Showers
4:00 AM 41.0 °F 38.1 °F 37.4 °F 87% 30.04 in 6.2 mi NW 4.5 mph - N/A   Mostly Cloudy
4:30 AM 39.2 °F 36.0 °F 37.4 °F 93% 30.04 in 6.2 mi NW 4.5 mph - N/A   Scattered Clouds
5:00 AM 39.2 °F 36.0 °F 35.6 °F 87% 30.06 in 6.2 mi NW 4.5 mph - N/A   Mostly Cloudy
5:30 AM 39.2 °F 36.0 °F 35.6 °F 87% 30.06 in 6.2 mi NW 4.5 mph - N/A   Mostly Cloudy
6:00 AM 39.2 °F - 35.6 °F 87% 30.06 in 6.2 mi Variable 2.2 mph - N/A   Mostly Cloudy
6:30 AM 41.0 °F - 35.6 °F 81% 30.09 in 6.2 mi Variable 2.2 mph - N/A   Mostly Cloudy
7:00 AM 41.0 °F - 37.4 °F 87% 30.09 in 6.2 mi NNW 2.2 mph - N/A   Mostly Cloudy
7:30 AM 41.0 °F - 37.4 °F 87% 30.12 in 6.2 mi Calm Calm - N/A   Mostly Cloudy
8:00 AM 42.8 °F 40.2 °F 37.4 °F 81% 30.12 in - NNW 4.5 mph - N/A   Clear
9:00 AM 44.6 °F 42.3 °F 35.6 °F 71% 30.12 in - NNW 4.5 mph - N/A   Clear
9:30 AM 46.4 °F - 33.8 °F 62% 30.15 in 6.2 mi Variable 2.2 mph - N/A   Mostly Cloudy
10:00 AM 48.2 °F - 35.6 °F 62% 30.15 in 6.2 mi Variable 2.2 mph - N/A   Mostly Cloudy
10:30 AM 46.4 °F - 35.6 °F 66% 30.15 in 6.2 mi Variable 2.2 mph - N/A   Mostly Cloudy
11:00 AM 48.2 °F - 35.6 °F 62% 30.15 in - SSE 6.7 mph - N/A   Clear
11:30 AM 48.2 °F - 35.6 °F 62% 30.15 in 6.2 mi SSE 6.7 mph - N/A   Scattered Clouds
12:00 PM 48.2 °F - 35.6 °F 62% 30.15 in 6.2 mi South 4.5 mph - N/A   Scattered Clouds
12:30 PM 50.0 °F - 35.6 °F 58% 30.12 in - South 4.5 mph - N/A   Clear
1:00 PM 50.0 °F - 35.6 °F 58% 30.12 in 6.2 mi SSW 4.5 mph - N/A   Scattered Clouds
1:30 PM 51.8 °F - 35.6 °F 54% 30.12 in - South 4.5 mph - N/A   Clear
2:00 PM 51.8 °F - 35.6 °F 54% 30.12 in - South 4.5 mph - N/A   Clear
2:30 PM 51.8 °F - 35.6 °F 54% 30.09 in - South 4.5 mph - N/A   Clear
3:00 PM 51.8 °F - 37.4 °F 58% 30.09 in - South 6.7 mph - N/A   Clear
3:30 PM 51.8 °F - 37.4 °F 58% 30.09 in - SE 6.7 mph - N/A   Clear
4:00 PM 51.8 °F - 39.2 °F 62% 30.09 in - South 4.5 mph - N/A   Clear
4:30 PM 51.8 °F - 37.4 °F 58% 30.09 in - SE 6.7 mph - N/A   Clear
5:00 PM 51.8 °F - 39.2 °F 62% 30.09 in - SE 6.7 mph - N/A   Clear
5:30 PM 51.8 °F - 37.4 °F 58% 30.09 in - SE 8.9 mph - N/A   Clear
6:00 PM 51.8 °F - 39.2 °F 62% 30.06 in - SE 8.9 mph - N/A   Clear
7:00 PM 50.0 °F - 37.4 °F 62% 30.06 in - SE 6.7 mph - N/A   Clear
7:30 PM 50.0 °F - 39.2 °F 66% 30.06 in - SE 6.7 mph - N/A   Clear
8:00 PM 48.2 °F - 39.2 °F 71% 30.06 in - SSE 8.9 mph - N/A   Clear
8:30 PM 48.2 °F - 39.2 °F 71% 30.06 in - SSE 8.9 mph - N/A   Clear
9:00 PM 48.2 °F - 41.0 °F 76% 30.06 in - SSE 8.9 mph - N/A   Clear
9:30 PM 46.4 °F 44.4 °F 41.0 °F 81% 30.06 in - SSE 4.5 mph - N/A   Clear
10:00 PM 46.4 °F 43.0 °F 42.8 °F 87% 30.06 in - SSE 6.7 mph - N/A   Clear
10:30 PM 46.4 °F 44.4 °F 42.8 °F 87% 30.06 in 5.6 mi SSE 4.5 mph - N/A   Unknown
11:00 PM 46.4 °F - 42.8 °F 87% 30.06 in - Calm Calm - N/A   Clear
11:30 PM 48.2 °F - 44.6 °F 87% 30.06 in - SSW 2.2 mph - N/A   Clear